Location: Zagreb
(45.8000°N, 16.0000°E)
Time: 11:59:19
(UTC+01:00)

Vanguard 1 Rocket - Pass Details

Date: 07 October 2020
Orbit: 656 x 4221 km, 34.3° (Epoch: 28 October)

Event Time Altitude Azimuth Distance (km) Brightness Sun altitude
Rises 22:02:50 0° 275° (W) 5,888 12.2 -37.1°
Reaches altitude 10° 22:06:32 10° 267° (W) 5,307 11.7 -37.6°
Maximum altitude 22:21:24 37° 208° (SSW) 4,781 10.8 -39.7°
Enters shadow 22:26:51 33° 186° (S) 5,258 10.8 -40.4°
Drops below altitude 10° 22:42:41 10° 152° (SSE) 7,417 - -42.3°
Sets 22:49:22 0° 145° (SE) 8,396 - -43.1°
